Terug naar catalogus

PEGASUS DEB

ActiefPO
NORAD 24239·DEBRIS·🇺🇸 United States

Gelanceerd May 19, 1994 vanaf Vandenberg Space Force Base

Loading…

Volgende Passages (komende 24 uur)

TLE

VersSource: Space-Track

Epoch: Sep 14, 2026, 04:22 UTC

1 24239U 94029LN  26257.18258380  .00003293  00000-0  34906-3 0  9993
2 24239  81.5075  65.8258 0136029 282.6880  75.9154 14.82225256589445

Volg PEGASUS DEB in realtime met AllMySat

Download on the App Store